Overview Statistics Trail Chart Weather Telemetry Raw packets
 

This is the latest recevied weather packets stored in our database for station/object IZ1HMT-3. If no packets are shown the sender has not sent any weather packets the latest 10 day(s).

<< 17 18 19 20 21 22 23 >>
Time Temp. Humidity Pressure Rain* Wind** Luminosity Snow
1788090387 31.67° C 48% 1015.7 hPa - - - -
1788089179 31.11° C 48% 1015.8 hPa - - - -
1788088575 31.11° C 47% 1015.8 hPa - - - -
1788087970 31.11° C 47% 1015.8 hPa - - - -
1788087366 31.11° C 47% 1015.7 hPa - - - -
1788086756 31.67° C 46% 1015.9 hPa - - - -
1788086152 31.67° C 45% 1016 hPa - - - -
1788085547 32.22° C 45% 1015.9 hPa - - - -
1788084943 32.22° C 43% 1016 hPa - - - -
1788084339 33.33° C 41% 1016.1 hPa - - - -
1788082526 40° C 30% 1016.1 hPa - - - -
1788081922 40° C 30% 1016.1 hPa - - - -
1788080713 40° C 31% 1016.1 hPa - - - -
1788080109 39.44° C 31% 1016.1 hPa - - - -
1788078296 38.89° C 32% 1016 hPa - - - -
1788077691 38.33° C 33% 1015.9 hPa - - - -
1788077087 37.78° C 33% 1015.8 hPa - - - -
1788076483 37.78° C 34% 1015.7 hPa - - - -
1788075275 35.56° C 38% 1015.7 hPa - - - -
1788074670 34.44° C 41% 1015.6 hPa - - - -
1788074066 34.44° C 40% 1015.6 hPa - - - -
1788072857 31.67° C 47% 1015.6 hPa - - - -
1788063046 25.56° C 60% 1015.1 hPa - - - -
1788047943 25° C 57% 1015.5 hPa - - - -
1788047339 25° C 57% 1015.4 hPa - - - -

* Rain since midnight (hover to see other rain measurements)
** Current wind speed in m/s (hover to see current wind gust speed)